Time,TemperatureF,DewpointF,PressureIn,WindDirection,WindDirectionDegrees,WindSpeedMPH,WindSpeedGustMPH,Humidity,HourlyPrecipIn,Conditions,Clouds,dailyrainin,SoftwareType,DateUTC
2013-04-04 00:04:00,60.1,28.6,29.97,NNE,13,3.0,5.0,30,0.00,,---,0.00,VWS V14.01,2013-04-04 07:04:00,
2013-04-04 00:09:00,60.7,28.3,29.97,NNE,15,3.0,6.0,29,0.00,,---,0.00,VWS V14.01,2013-04-04 07:09:00,
2013-04-04 00:14:00,60.9,28.5,29.97,NE,35,2.0,6.0,29,0.00,,---,0.00,VWS V14.01,2013-04-04 07:14:00,
2013-04-04 00:19:00,60.8,28.4,29.97,NE,44,3.0,6.0,29,0.00,,---,0.00,VWS V14.01,2013-04-04 07:19:00,
2013-04-04 00:24:00,60.3,27.9,29.96,North,7,3.0,6.0,29,0.00,,---,0.00,VWS V14.01,2013-04-04 07:24:00,
2013-04-04 00:29:00,59.7,28.2,29.96,NNE,24,3.0,6.0,30,0.00,,---,0.00,VWS V14.01,2013-04-04 07:29:00,
2013-04-04 00:35:00,59.3,27.9,29.96,North,11,4.0,5.0,30,0.00,,---,0.00,VWS V14.01,2013-04-04 07:35:00,
2013-04-04 00:40:00,59.1,27.7,29.96,NE,34,4.0,6.0,30,0.00,,---,0.00,VWS V14.01,2013-04-04 07:40:00,
2013-04-04 00:45:00,59.1,27.7,29.96,NNE,19,3.0,7.0,30,0.00,,---,0.00,VWS V14.01,2013-04-04 07:45:00,
2013-04-04 00:50:00,59.2,27.8,29.96,NNE,18,4.0,7.0,30,0.00,,---,0.00,VWS V14.01,2013-04-04 07:50:00,
2013-04-04 00:55:00,59.7,28.2,29.96,North,4,7.0,7.0,30,0.00,,---,0.00,VWS V14.01,2013-04-04 07:55:00,
2013-04-04 01:00:00,60.2,27.9,29.96,NE,44,4.0,8.0,29,0.00,,---,0.00,VWS V14.01,2013-04-04 08:00:00,
2013-04-04 01:05:00,60.6,28.2,29.96,NNE,20,3.0,5.0,29,0.00,,---,0.00,VWS V14.01,2013-04-04 08:05:00,
2013-04-04 01:10:00,60.6,28.2,29.96,NNE,16,2.0,5.0,29,0.00,,---,0.00,VWS V14.01,2013-04-04 08:10:00,
2013-04-04 01:15:00,60.5,28.1,29.97,NNE,25,2.0,5.0,29,0.00,,---,0.00,VWS V14.01,2013-04-04 08:15:00,
2013-04-04 01:20:00,60.7,28.3,29.97,NNE,23,3.0,5.0,29,0.00,,---,0.00,VWS V14.01,2013-04-04 08:20:00,
2013-04-04 01:25:00,60.8,28.4,29.97,NNE,26,3.0,5.0,29,0.00,,---,0.00,VWS V14.01,2013-04-04 08:25:00,
2013-04-04 01:31:00,60.9,27.6,29.97,NE,36,2.0,5.0,28,0.00,,---,0.00,VWS V14.01,2013-04-04 08:31:00,
2013-04-04 01:36:00,60.7,28.3,29.97,NNE,24,3.0,3.0,29,0.00,,---,0.00,VWS V14.01,2013-04-04 08:36:00,
2013-04-04 01:41:00,60.4,28.0,29.97,NNE,21,2.0,4.0,29,0.00,,---,0.00,VWS V14.01,2013-04-04 08:41:00,
2013-04-04 01:46:00,59.9,27.6,29.97,ESE,104,1.0,4.0,29,0.00,,---,0.00,VWS V14.01,2013-04-04 08:46:00,
2013-04-04 01:51:00,58.5,28.0,29.97,East,89,1.0,4.0,31,0.00,,---,0.00,VWS V14.01,2013-04-04 08:51:00,
2013-04-04 01:56:00,57.1,27.5,29.97,ENE,61,2.0,4.0,32,0.00,,---,0.00,VWS V14.01,2013-04-04 08:56:00,
2013-04-04 02:02:00,56.1,28.1,29.97,NE,41,3.0,5.0,34,0.00,,---,0.00,VWS V14.01,2013-04-04 09:02:00,
2013-04-04 02:07:00,55.6,27.7,29.96,NE,38,3.0,4.0,34,0.00,,---,0.00,VWS V14.01,2013-04-04 09:07:00,
2013-04-04 02:12:00,55.5,28.3,29.96,NE,39,2.0,5.0,35,0.00,,---,0.00,VWS V14.01,2013-04-04 09:12:00,
2013-04-04 02:17:00,55.4,28.2,29.96,NE,36,2.0,5.0,35,0.00,,---,0.00,VWS V14.01,2013-04-04 09:17:00,
2013-04-04 02:22:00,55.3,28.1,29.96,NE,42,4.0,6.0,35,0.00,,---,0.00,VWS V14.01,2013-04-04 09:22:00,
2013-04-04 02:27:00,55.2,28.0,29.96,NE,40,4.0,6.0,35,0.00,,---,0.00,VWS V14.01,2013-04-04 09:27:00,
2013-04-04 02:32:00,55.0,27.9,29.95,ENE,66,3.0,6.0,35,0.00,,---,0.00,VWS V14.01,2013-04-04 09:32:00,
2013-04-04 02:37:00,54.7,28.3,29.95,NE,53,2.0,6.0,36,0.00,,---,0.00,VWS V14.01,2013-04-04 09:37:00,
2013-04-04 02:42:00,54.5,28.1,29.95,NE,34,3.0,6.0,36,0.00,,---,0.00,VWS V14.01,2013-04-04 09:42:00,
2013-04-04 02:47:00,54.3,28.6,29.95,NE,45,2.0,6.0,37,0.00,,---,0.00,VWS V14.01,2013-04-04 09:47:00,
2013-04-04 02:52:00,54.6,28.9,29.95,NNE,30,4.0,6.0,37,0.00,,---,0.00,VWS V14.01,2013-04-04 09:52:00,
2013-04-04 02:58:00,55.6,29.1,29.95,NNE,26,4.0,6.0,36,0.00,,---,0.00,VWS V14.01,2013-04-04 09:58:00,
2013-04-04 03:03:00,56.8,28.8,29.95,NNE,27,3.0,6.0,34,0.00,,---,0.00,VWS V14.01,2013-04-04 10:03:00,
2013-04-04 03:08:00,57.6,28.7,29.95,NNE,30,3.0,6.0,33,0.00,,---,0.00,VWS V14.01,2013-04-04 10:08:00,
2013-04-04 03:13:00,58.2,29.3,29.95,NNE,24,2.0,6.0,33,0.00,,---,0.00,VWS V14.01,2013-04-04 10:13:00,
2013-04-04 03:18:00,58.6,29.6,29.96,NE,43,3.0,6.0,33,0.00,,---,0.00,VWS V14.01,2013-04-04 10:18:00,
2013-04-04 03:23:00,58.6,29.6,29.96,NE,39,0.0,6.0,33,0.00,,---,0.00,VWS V14.01,2013-04-04 10:23:00,
2013-04-04 03:28:00,57.5,28.6,29.96,South,170,0.0,6.0,33,0.00,,---,0.00,VWS V14.01,2013-04-04 10:28:00,
2013-04-04 03:33:00,56.2,28.9,29.96,ESE,108,1.0,6.0,35,0.00,,---,0.00,VWS V14.01,2013-04-04 10:33:00,
2013-04-04 03:38:00,55.5,29.0,29.96,NE,54,1.0,2.0,36,0.00,,---,0.00,VWS V14.01,2013-04-04 10:38:00,
2013-04-04 03:44:00,55.0,29.2,29.96,NE,56,0.0,2.0,37,0.00,,---,0.00,VWS V14.01,2013-04-04 10:44:00,
2013-04-04 03:49:00,54.2,29.2,29.96,SE,128,0.0,2.0,38,0.00,,---,0.00,VWS V14.01,2013-04-04 10:49:00,
2013-04-04 03:54:00,53.5,29.2,29.96,SE,128,0.0,2.0,39,0.00,,---,0.00,VWS V14.01,2013-04-04 10:54:00,
2013-04-04 03:59:00,52.8,29.2,29.96,SE,127,0.0,2.0,40,0.00,,---,0.00,VWS V14.01,2013-04-04 10:59:00,
2013-04-04 04:04:00,52.4,28.8,29.96,ESE,115,0.0,0.0,40,0.00,,---,0.00,VWS V14.01,2013-04-04 11:04:00,
2013-04-04 04:09:00,52.3,29.3,29.96,ENE,65,1.0,3.0,41,0.00,,---,0.00,VWS V14.01,2013-04-04 11:09:00,
2013-04-04 04:15:00,52.3,29.3,29.96,NE,49,2.0,3.0,41,0.00,,---,0.00,VWS V14.01,2013-04-04 11:15:00,
2013-04-04 04:20:00,52.2,29.2,29.96,North,359,0.0,3.0,41,0.00,,---,0.00,VWS V14.01,2013-04-04 11:20:00,
2013-04-04 04:25:00,51.9,29.0,29.96,North,356,0.0,3.0,41,0.00,,---,0.00,VWS V14.01,2013-04-04 11:25:00,
2013-04-04 04:30:00,51.8,29.5,29.96,NNE,18,1.0,3.0,42,0.00,,---,0.00,VWS V14.01,2013-04-04 11:30:00,
2013-04-04 04:35:00,52.5,29.5,29.96,North,5,0.0,1.0,41,0.00,,---,0.00,VWS V14.01,2013-04-04 11:35:00,
2013-04-04 04:40:00,52.4,29.4,29.96,NNE,23,2.0,2.0,41,0.00,,---,0.00,VWS V14.01,2013-04-04 11:40:00,
2013-04-04 04:45:00,52.8,29.8,29.97,ENE,57,1.0,2.0,41,0.00,,---,0.00,VWS V14.01,2013-04-04 11:45:00,
2013-04-04 04:50:00,52.8,29.8,29.96,ENE,58,1.0,4.0,41,0.00,,---,0.00,VWS V14.01,2013-04-04 11:50:00,
2013-04-04 04:55:00,52.3,29.9,29.96,NE,54,1.0,4.0,42,0.00,,---,0.00,VWS V14.01,2013-04-04 11:55:00,
2013-04-04 05:00:00,52.1,29.7,29.96,NE,41,2.0,4.0,42,0.00,,---,0.00,VWS V14.01,2013-04-04 12:00:00,
2013-04-04 05:05:00,51.8,29.5,29.96,North,6,1.0,3.0,42,0.00,,---,0.00,VWS V14.01,2013-04-04 12:05:00,
2013-04-04 05:10:00,51.6,29.9,29.97,NNE,16,1.0,3.0,43,0.00,,---,0.00,VWS V14.01,2013-04-04 12:10:00,
2013-04-04 05:16:00,51.7,29.4,29.97,NNE,21,1.0,4.0,42,0.00,,---,0.00,VWS V14.01,2013-04-04 12:16:00,
2013-04-04 05:22:00,51.6,29.9,29.97,NNE,23,1.0,4.0,43,0.00,,---,0.00,VWS V14.01,2013-04-04 12:22:00,
2013-04-04 05:27:00,52.1,29.7,29.97,NE,35,1.0,4.0,42,0.00,,---,0.00,VWS V14.01,2013-04-04 12:27:00,
2013-04-04 05:32:00,52.8,29.8,29.97,NNE,32,1.0,4.0,41,0.00,,---,0.00,VWS V14.01,2013-04-04 12:32:00,
2013-04-04 05:37:00,53.3,29.6,29.97,NNE,31,1.0,1.0,40,0.00,,---,0.00,VWS V14.01,2013-04-04 12:37:00,
2013-04-04 05:42:00,53.5,29.8,29.97,NE,53,2.0,2.0,40,0.00,,---,0.00,VWS V14.01,2013-04-04 12:42:00,
2013-04-04 05:47:00,53.0,30.0,29.97,ENE,61,2.0,2.0,41,0.00,,---,0.00,VWS V14.01,2013-04-04 12:47:00,
2013-04-04 05:52:00,51.7,29.4,29.97,ENE,63,1.0,3.0,42,0.00,,---,0.00,VWS V14.01,2013-04-04 12:52:00,
2013-04-04 05:57:00,51.3,29.6,29.98,ENE,61,2.0,3.0,43,0.00,,---,0.00,VWS V14.01,2013-04-04 12:57:00,
2013-04-04 06:02:00,51.4,29.7,29.98,NE,42,4.0,5.0,43,0.00,,---,0.00,VWS V14.01,2013-04-04 13:02:00,
2013-04-04 06:07:00,51.5,29.8,29.97,NE,35,2.0,4.0,43,0.00,,---,0.00,VWS V14.01,2013-04-04 13:07:00,
2013-04-04 06:12:00,51.4,29.7,29.98,NE,34,0.0,4.0,43,0.00,,---,0.00,VWS V14.01,2013-04-04 13:12:00,
2013-04-04 06:17:00,51.0,29.9,29.98,NE,34,0.0,4.0,44,0.00,,---,0.00,VWS V14.01,2013-04-04 13:17:00,
2013-04-04 06:22:00,50.6,29.5,29.98,NE,34,0.0,4.0,44,0.00,,---,0.00,VWS V14.01,2013-04-04 13:22:00,
2013-04-04 06:27:00,50.3,29.8,29.98,NNE,18,1.0,4.0,45,0.00,,---,0.00,VWS V14.01,2013-04-04 13:27:00,
2013-04-04 06:32:00,50.3,29.8,29.98,NE,46,2.0,4.0,45,0.00,,---,0.00,VWS V14.01,2013-04-04 13:32:00,
2013-04-04 06:37:00,50.0,29.5,29.98,NE,47,2.0,3.0,45,0.00,,---,0.00,VWS V14.01,2013-04-04 13:37:00,
2013-04-04 06:42:00,50.0,29.5,29.98,NE,46,2.0,3.0,45,0.00,,---,0.00,VWS V14.01,2013-04-04 13:42:00,
2013-04-04 06:47:00,50.1,30.1,29.99,NNE,18,0.0,3.0,46,0.00,,---,0.00,VWS V14.01,2013-04-04 13:47:00,
2013-04-04 06:53:00,50.5,30.0,29.99,NNE,18,0.0,3.0,45,0.00,,---,0.00,VWS V14.01,2013-04-04 13:53:00,
2013-04-04 06:58:00,51.0,30.4,29.99,North,5,2.0,3.0,45,0.00,,---,0.00,VWS V14.01,2013-04-04 13:58:00,
2013-04-04 07:03:00,52.0,30.8,29.99,NE,53,3.0,5.0,44,0.00,,---,0.00,VWS V14.01,2013-04-04 14:03:00,
2013-04-04 07:08:00,53.2,30.7,29.99,NNE,29,1.0,4.0,42,0.00,,---,0.00,VWS V14.01,2013-04-04 14:08:00,
2013-04-04 07:13:00,53.9,30.8,29.99,NNE,24,2.0,4.0,41,0.00,,---,0.00,VWS V14.01,2013-04-04 14:13:00,
2013-04-04 07:19:00,54.8,31.0,29.99,NE,50,4.0,5.0,40,0.00,,---,0.00,VWS V14.01,2013-04-04 14:19:00,
2013-04-04 07:24:00,54.9,31.0,30.00,NNE,18,1.0,5.0,40,0.00,,---,0.00,VWS V14.01,2013-04-04 14:24:00,
2013-04-04 07:29:00,55.5,31.6,30.00,NE,44,1.0,5.0,40,0.00,,---,0.00,VWS V14.01,2013-04-04 14:29:00,
2013-04-04 07:34:00,56.4,31.8,30.00,NE,41,2.0,2.0,39,0.00,,---,0.00,VWS V14.01,2013-04-04 14:34:00,
2013-04-04 07:39:00,57.4,31.4,30.00,NE,42,1.0,3.0,37,0.00,,---,0.00,VWS V14.01,2013-04-04 14:39:00,
2013-04-04 07:44:00,58.4,31.6,30.00,ENE,58,1.0,3.0,36,0.00,,---,0.00,VWS V14.01,2013-04-04 14:44:00,
2013-04-04 07:49:00,59.5,31.9,30.00,ENE,65,1.0,3.0,35,0.00,,---,0.00,VWS V14.01,2013-04-04 14:49:00,
2013-04-04 07:54:00,60.5,32.0,30.00,ENE,61,1.0,3.0,34,0.00,,---,0.00,VWS V14.01,2013-04-04 14:54:00,
2013-04-04 07:59:00,61.5,32.2,30.00,ENE,58,0.0,4.0,33,0.00,,---,0.00,VWS V14.01,2013-04-04 14:59:00,
2013-04-04 08:05:00,63.2,32.1,30.00,NE,34,3.0,3.0,31,0.00,,---,0.00,VWS V14.01,2013-04-04 15:05:00,
2013-04-04 08:10:00,64.2,30.4,30.00,NNE,33,3.0,5.0,28,0.00,,---,0.00,VWS V14.01,2013-04-04 15:10:00,
2013-04-04 08:15:00,64.9,30.1,30.00,NE,37,2.0,6.0,27,0.00,,---,0.00,VWS V14.01,2013-04-04 15:15:00,
2013-04-04 08:20:00,65.9,30.1,30.00,NE,40,2.0,6.0,26,0.00,,---,0.00,VWS V14.01,2013-04-04 15:20:00,
2013-04-04 08:25:00,66.6,30.7,30.00,ENE,57,2.0,6.0,26,0.00,,---,0.00,VWS V14.01,2013-04-04 15:25:00,
2013-04-04 08:30:00,67.2,30.2,30.00,NNE,14,2.0,6.0,25,0.00,,---,0.00,VWS V14.01,2013-04-04 15:30:00,
2013-04-04 08:35:00,67.6,29.6,30.00,ENE,71,2.0,2.0,24,0.00,,---,0.00,VWS V14.01,2013-04-04 15:35:00,
2013-04-04 08:40:00,68.2,31.1,30.00,ENE,72,0.0,3.0,25,0.00,,---,0.00,VWS V14.01,2013-04-04 15:40:00,
2013-04-04 08:45:00,69.6,30.2,30.00,ENE,72,0.0,3.0,23,0.00,,---,0.00,VWS V14.01,2013-04-04 15:45:00,
2013-04-04 08:50:00,70.9,30.2,30.00,East,90,0.0,3.0,22,0.00,,---,0.00,VWS V14.01,2013-04-04 15:50:00,
2013-04-04 08:55:00,71.8,29.8,30.00,SE,133,0.0,3.0,21,0.00,,---,0.00,VWS V14.01,2013-04-04 15:55:00,
2013-04-04 09:01:00,72.3,31.4,30.00,SW,232,3.0,3.0,22,0.00,,---,0.00,VWS V14.01,2013-04-04 16:01:00,
2013-04-04 09:06:00,71.0,31.4,30.00,South,174,4.0,6.0,23,0.00,,---,0.00,VWS V14.01,2013-04-04 16:06:00,
2013-04-04 09:11:00,70.3,31.8,30.00,SSE,166,1.0,6.0,24,0.00,,---,0.00,VWS V14.01,2013-04-04 16:11:00,
2013-04-04 09:16:00,70.7,31.1,29.99,WSW,239,2.0,6.0,23,0.00,,---,0.00,VWS V14.01,2013-04-04 16:16:00,
2013-04-04 09:21:00,70.9,31.3,29.99,SSW,208,3.0,6.0,23,0.00,,---,0.00,VWS V14.01,2013-04-04 16:21:00,
2013-04-04 09:26:00,70.8,31.2,29.99,WSW,238,1.0,6.0,23,0.00,,---,0.00,VWS V14.01,2013-04-04 16:26:00,
2013-04-04 09:32:00,72.1,32.3,29.99,WSW,239,2.0,6.0,23,0.00,,---,0.00,VWS V14.01,2013-04-04 16:32:00,
2013-04-04 09:37:00,72.2,31.3,29.99,SW,226,1.0,4.0,22,0.00,,---,0.00,VWS V14.01,2013-04-04 16:37:00,
2013-04-04 09:42:00,73.2,32.1,29.99,WSW,246,0.0,4.0,22,0.00,,---,0.00,VWS V14.01,2013-04-04 16:42:00,
2013-04-04 09:47:00,73.6,30.1,29.99,ESE,120,1.0,4.0,20,0.00,,---,0.00,VWS V14.01,2013-04-04 16:47:00,
2013-04-04 09:52:00,73.9,30.3,29.99,South,190,2.0,4.0,20,0.00,,---,0.00,VWS V14.01,2013-04-04 16:52:00,
2013-04-04 09:57:00,74.2,28.0,29.99,SSE,167,0.0,4.0,18,0.00,,---,0.00,VWS V14.01,2013-04-04 16:57:00,
2013-04-04 10:02:00,74.8,29.8,29.99,WSW,238,3.0,4.0,19,0.00,,---,0.00,VWS V14.01,2013-04-04 17:02:00,
2013-04-04 10:07:00,74.8,31.1,29.99,WSW,257,2.0,5.0,20,0.00,,---,0.00,VWS V14.01,2013-04-04 17:07:00,
2013-04-04 10:12:00,74.7,28.4,29.99,SW,229,0.0,5.0,18,0.00,,---,0.00,VWS V14.01,2013-04-04 17:12:00,
2013-04-04 10:18:00,75.1,28.7,29.99,SSE,162,1.0,5.0,18,0.00,,---,0.00,VWS V14.01,2013-04-04 17:18:00,
2013-04-04 10:22:00,75.8,27.9,29.99,NE,50,1.0,5.0,17,0.00,,---,0.00,VWS V14.01,2013-04-04 17:22:00,
2013-04-04 10:28:00,75.5,29.1,29.99,WSW,255,0.0,5.0,18,0.00,,---,0.00,VWS V14.01,2013-04-04 17:28:00,
2013-04-04 10:33:00,76.2,29.6,29.98,SE,131,0.0,5.0,18,0.00,,---,0.00,VWS V14.01,2013-04-04 17:33:00,
2013-04-04 10:38:00,76.7,28.6,29.98,WNW,288,1.0,2.0,17,0.00,,---,0.00,VWS V14.01,2013-04-04 17:38:00,
2013-04-04 10:43:00,77.7,28.0,29.98,South,190,0.0,2.0,16,0.00,,---,0.00,VWS V14.01,2013-04-04 17:43:00,
2013-04-04 10:48:00,78.8,28.9,29.98,South,172,3.0,3.0,16,0.00,,---,0.00,VWS V14.01,2013-04-04 17:48:00,
2013-04-04 10:53:00,78.6,28.7,29.98,NE,44,0.0,3.0,16,0.00,,---,0.00,VWS V14.01,2013-04-04 17:53:00,
2013-04-04 10:58:00,79.7,29.6,29.97,WSW,243,1.0,4.0,16,0.00,,---,0.00,VWS V14.01,2013-04-04 17:58:00,
2013-04-04 11:03:00,79.6,27.9,29.97,SW,220,1.0,5.0,15,0.00,,---,0.00,VWS V14.01,2013-04-04 18:03:00,
2013-04-04 11:09:00,79.8,28.1,29.97,ESE,115,2.0,4.0,15,0.00,,---,0.00,VWS V14.01,2013-04-04 18:09:00,
2013-04-04 11:14:00,80.3,26.8,29.97,ESE,102,0.0,5.0,14,0.00,,---,0.00,VWS V14.01,2013-04-04 18:14:00,
2013-04-04 11:19:00,81.0,27.4,29.97,North,4,1.0,5.0,14,0.00,,---,0.00,VWS V14.01,2013-04-04 18:19:00,
2013-04-04 11:24:00,82.0,29.8,29.96,NE,44,1.0,5.0,15,0.00,,---,0.00,VWS V14.01,2013-04-04 18:24:00,
2013-04-04 11:29:00,82.8,25.0,29.96,SE,131,3.0,7.0,12,0.00,,---,0.00,VWS V14.01,2013-04-04 18:29:00,
2013-04-04 11:34:00,83.0,23.1,29.96,ESE,114,3.0,9.0,11,0.00,,---,0.00,VWS V14.01,2013-04-04 18:34:00,
2013-04-04 11:39:00,83.2,21.0,29.95,SSE,151,5.0,11.0,10,0.00,,---,0.00,VWS V14.01,2013-04-04 18:39:00,
2013-04-04 11:45:00,83.0,18.4,29.95,SW,226,2.0,11.0,9,0.00,,---,0.00,VWS V14.01,2013-04-04 18:45:00,
2013-04-04 11:50:00,83.3,15.9,29.95,SW,233,8.0,11.0,8,0.00,,---,0.00,VWS V14.01,2013-04-04 18:50:00,
2013-04-04 11:55:00,83.0,15.7,29.95,SSE,162,7.0,11.0,8,0.00,,---,0.00,VWS V14.01,2013-04-04 18:55:00,
2013-04-04 12:00:00,83.4,18.7,29.94,SSE,165,9.0,11.0,9,0.00,,---,0.00,VWS V14.01,2013-04-04 19:00:00,
2013-04-04 12:05:00,83.9,13.3,29.94,SE,132,7.0,8.0,7,0.00,,---,0.00,VWS V14.01,2013-04-04 19:05:00,
2013-04-04 12:10:00,84.3,13.6,29.94,SE,143,2.0,15.0,7,0.00,,---,0.00,VWS V14.01,2013-04-04 19:10:00,
2013-04-04 12:15:00,84.3,1.3,29.93,SE,146,6.0,15.0,4,0.00,,---,0.00,VWS V14.01,2013-04-04 19:15:00,
2013-04-04 12:20:00,84.2,6.0,29.93,SW,219,5.0,15.0,5,0.00,,---,0.00,VWS V14.01,2013-04-04 19:20:00,
2013-04-04 12:25:00,84.0,9.9,29.93,SSW,192,5.0,15.0,6,0.00,,---,0.00,VWS V14.01,2013-04-04 19:25:00,
2013-04-04 12:31:00,83.7,9.7,29.93,SW,223,2.0,15.0,6,0.00,,---,0.00,VWS V14.01,2013-04-04 19:31:00,
2013-04-04 12:36:00,83.6,9.6,29.92,SE,145,2.0,6.0,6,0.00,,---,0.00,VWS V14.01,2013-04-04 19:36:00,
2013-04-04 12:41:00,83.6,9.6,29.93,SW,222,1.0,9.0,6,0.00,,---,0.00,VWS V14.01,2013-04-04 19:41:00,
2013-04-04 12:46:00,84.4,10.2,29.92,SW,215,3.0,9.0,6,0.00,,---,0.00,VWS V14.01,2013-04-04 19:46:00,
2013-04-04 12:52:00,83.8,9.8,29.92,WSW,242,3.0,9.0,6,0.00,,---,0.00,VWS V14.01,2013-04-04 19:52:00,
2013-04-04 12:57:00,83.8,13.2,29.92,SE,124,7.0,9.0,7,0.00,,---,0.00,VWS V14.01,2013-04-04 19:57:00,
2013-04-04 13:02:00,83.9,13.3,29.92,WSW,248,4.0,10.0,7,0.00,,---,0.00,VWS V14.01,2013-04-04 20:02:00,
2013-04-04 13:07:00,83.7,18.9,29.92,SW,221,6.0,7.0,9,0.00,,---,0.00,VWS V14.01,2013-04-04 20:07:00,
2013-04-04 13:12:00,83.9,16.4,29.91,WSW,241,2.0,12.0,8,0.00,,---,0.00,VWS V14.01,2013-04-04 20:12:00,
2013-04-04 13:17:00,84.2,13.5,29.91,South,170,5.0,12.0,7,0.00,,---,0.00,VWS V14.01,2013-04-04 20:17:00,
2013-04-04 13:22:00,84.0,13.4,29.91,SSW,195,1.0,12.0,7,0.00,,---,0.00,VWS V14.01,2013-04-04 20:22:00,
2013-04-04 13:27:00,83.8,13.2,29.91,WSW,248,4.0,12.0,7,0.00,,---,0.00,VWS V14.01,2013-04-04 20:27:00,
2013-04-04 13:32:00,84.1,16.5,29.91,SSW,208,3.0,12.0,8,0.00,,---,0.00,VWS V14.01,2013-04-04 20:32:00,
2013-04-04 13:37:00,84.3,13.6,29.90,SSW,207,6.0,10.0,7,0.00,,---,0.00,VWS V14.01,2013-04-04 20:37:00,
2013-04-04 13:42:00,84.8,14.0,29.90,SE,125,3.0,10.0,7,0.00,,---,0.00,VWS V14.01,2013-04-04 20:42:00,
2013-04-04 13:47:00,85.8,17.8,29.90,SE,134,5.0,10.0,8,0.00,,---,0.00,VWS V14.01,2013-04-04 20:47:00,
2013-04-04 13:52:00,86.5,11.7,29.90,SSE,158,3.0,11.0,6,0.00,,---,0.00,VWS V14.01,2013-04-04 20:52:00,
2013-04-04 13:58:00,86.5,2.8,29.90,SSW,210,1.0,11.0,4,0.00,,---,0.00,VWS V14.01,2013-04-04 20:58:00,
2013-04-04 14:03:00,87.0,8.0,29.89,SSE,150,2.0,11.0,5,0.00,,---,0.00,VWS V14.01,2013-04-04 21:03:00,
2013-04-04 14:08:00,87.4,12.4,29.89,SSE,150,2.0,5.0,6,0.00,,---,0.00,VWS V14.01,2013-04-04 21:08:00,
2013-04-04 14:13:00,86.6,7.7,29.89,ESE,117,1.0,8.0,5,0.00,,---,0.00,VWS V14.01,2013-04-04 21:13:00,
2013-04-04 14:18:00,86.6,11.8,29.89,WSW,246,3.0,8.0,6,0.00,,---,0.00,VWS V14.01,2013-04-04 21:18:00,
2013-04-04 14:23:00,86.2,11.5,29.88,South,187,1.0,8.0,6,0.00,,---,0.00,VWS V14.01,2013-04-04 21:23:00,
2013-04-04 14:28:00,85.8,11.2,29.88,West,270,5.0,8.0,6,0.00,,---,0.00,VWS V14.01,2013-04-04 21:28:00,
2013-04-04 14:33:00,86.2,15.0,29.87,NW,314,1.0,8.0,7,0.00,,---,0.00,VWS V14.01,2013-04-04 21:33:00,
2013-04-04 14:38:00,87.2,12.2,29.87,ESE,105,2.0,2.0,6,0.00,,---,0.00,VWS V14.01,2013-04-04 21:38:00,
2013-04-04 14:43:00,86.9,12.0,29.87,SSE,155,1.0,7.0,6,0.00,,---,0.00,VWS V14.01,2013-04-04 21:43:00,
2013-04-04 14:48:00,86.7,15.4,29.87,WSW,252,4.0,8.0,7,0.00,,---,0.00,VWS V14.01,2013-04-04 21:48:00,
2013-04-04 14:53:00,86.7,15.4,29.87,SW,235,1.0,10.0,7,0.00,,---,0.00,VWS V14.01,2013-04-04 21:53:00,
2013-04-04 14:58:00,86.5,15.2,29.86,West,274,0.0,10.0,7,0.00,,---,0.00,VWS V14.01,2013-04-04 21:58:00,
2013-04-04 15:04:00,87.1,12.1,29.86,NNE,13,1.0,10.0,6,0.00,,---,0.00,VWS V14.01,2013-04-04 22:04:00,
2013-04-04 15:09:00,88.0,12.8,29.86,SSE,162,2.0,8.0,6,0.00,,---,0.00,VWS V14.01,2013-04-04 22:09:00,
2013-04-04 15:14:00,88.1,12.9,29.85,SSW,205,4.0,8.0,6,0.00,,---,0.00,VWS V14.01,2013-04-04 22:14:00,
2013-04-04 15:19:00,88.2,12.9,29.85,SSE,163,5.0,8.0,6,0.00,,---,0.00,VWS V14.01,2013-04-04 22:19:00,
2013-04-04 15:24:00,87.3,12.3,29.86,ESE,120,2.0,8.0,6,0.00,,---,0.00,VWS V14.01,2013-04-04 22:24:00,
2013-04-04 15:29:00,87.4,12.4,29.85,SW,225,4.0,8.0,6,0.00,,---,0.00,VWS V14.01,2013-04-04 22:29:00,
2013-04-04 15:34:00,87.4,12.4,29.85,SW,227,3.0,7.0,6,0.00,,---,0.00,VWS V14.01,2013-04-04 22:34:00,
2013-04-04 15:39:00,86.8,11.9,29.85,SW,228,2.0,7.0,6,0.00,,---,0.00,VWS V14.01,2013-04-04 22:39:00,
2013-04-04 15:44:00,86.5,7.6,29.85,ENE,75,2.0,7.0,5,0.00,,---,0.00,VWS V14.01,2013-04-04 22:44:00,
2013-04-04 15:49:00,86.6,11.8,29.84,NNE,33,1.0,7.0,6,0.00,,---,0.00,VWS V14.01,2013-04-04 22:49:00,
2013-04-04 15:54:00,87.0,8.0,29.84,NNE,33,3.0,7.0,5,0.00,,---,0.00,VWS V14.01,2013-04-04 22:54:00,
2013-04-04 15:59:00,87.3,8.2,29.84,SSE,160,3.0,7.0,5,0.00,,---,0.00,VWS V14.01,2013-04-04 22:59:00,
2013-04-04 16:04:00,86.8,7.8,29.84,SSE,153,1.0,1.0,5,0.00,,---,0.00,VWS V14.01,2013-04-04 23:04:00,
2013-04-04 16:10:00,86.0,7.3,29.84,SSE,159,4.0,6.0,5,0.00,,---,0.00,VWS V14.01,2013-04-04 23:10:00,
2013-04-04 16:15:00,85.5,6.9,29.83,WSW,240,4.0,9.0,5,0.00,,---,0.00,VWS V14.01,2013-04-04 23:15:00,
2013-04-04 16:20:00,85.0,6.6,29.83,SSE,167,5.0,9.0,5,0.00,,---,0.00,VWS V14.01,2013-04-04 23:20:00,
2013-04-04 16:25:00,85.1,6.7,29.83,SSE,163,2.0,9.0,5,0.00,,---,0.00,VWS V14.01,2013-04-04 23:25:00,
2013-04-04 16:30:00,85.1,6.7,29.83,ESE,115,0.0,9.0,5,0.00,,---,0.00,VWS V14.01,2013-04-04 23:30:00,
2013-04-04 16:35:00,84.9,1.7,29.83,SW,219,3.0,4.0,4,0.00,,---,0.00,VWS V14.01,2013-04-04 23:35:00,
2013-04-04 16:40:00,84.8,6.4,29.83,ESE,120,1.0,4.0,5,0.00,,---,0.00,VWS V14.01,2013-04-04 23:40:00,
2013-04-04 16:45:00,84.6,6.3,29.83,South,183,2.0,4.0,5,0.00,,---,0.00,VWS V14.01,2013-04-04 23:45:00,
2013-04-04 16:50:00,84.6,6.3,29.83,East,101,1.0,4.0,5,0.00,,---,0.00,VWS V14.01,2013-04-04 23:50:00,
2013-04-04 16:55:00,84.4,6.2,29.83,SSE,167,5.0,7.0,5,0.00,,---,0.00,VWS V14.01,2013-04-04 23:55:00,
2013-04-04 17:00:00,84.2,6.0,29.83,South,181,2.0,7.0,5,0.00,,---,0.00,VWS V14.01,2013-04-05 00:00:00,
2013-04-04 17:05:00,84.1,5.9,29.83,SSE,167,1.0,3.0,5,0.00,,---,0.00,VWS V14.01,2013-04-05 00:05:00,
2013-04-04 17:10:00,83.9,9.8,29.83,SW,224,2.0,4.0,6,0.00,,---,0.00,VWS V14.01,2013-04-05 00:10:00,
2013-04-04 17:15:00,83.5,9.6,29.83,West,259,3.0,5.0,6,0.00,,---,0.00,VWS V14.01,2013-04-05 00:15:00,
2013-04-04 17:20:00,83.3,9.4,29.83,WSW,256,2.0,5.0,6,0.00,,---,0.00,VWS V14.01,2013-04-05 00:20:00,
2013-04-04 17:25:00,83.1,9.3,29.83,SW,233,2.0,5.0,6,0.00,,---,0.00,VWS V14.01,2013-04-05 00:25:00,
2013-04-04 17:30:00,82.9,9.1,29.83,SW,221,2.0,5.0,6,0.00,,---,0.00,VWS V14.01,2013-04-05 00:30:00,
2013-04-04 17:36:00,82.7,9.0,29.83,WSW,240,5.0,6.0,6,0.00,,---,0.00,VWS V14.01,2013-04-05 00:36:00,
2013-04-04 17:41:00,82.3,8.7,29.83,WSW,238,4.0,9.0,6,0.00,,---,0.00,VWS V14.01,2013-04-05 00:41:00,
2013-04-04 17:46:00,82.1,8.6,29.83,WSW,242,6.0,9.0,6,0.00,,---,0.00,VWS V14.01,2013-04-05 00:46:00,
2013-04-04 17:51:00,81.8,8.3,29.83,West,278,4.0,9.0,6,0.00,,---,0.00,VWS V14.01,2013-04-05 00:51:00,
2013-04-04 17:56:00,81.6,8.2,29.83,WSW,243,3.0,9.0,6,0.00,,---,0.00,VWS V14.01,2013-04-05 00:56:00,
2013-04-04 18:01:00,81.4,8.0,29.83,West,262,3.0,9.0,6,0.00,,---,0.00,VWS V14.01,2013-04-05 01:01:00,
2013-04-04 18:06:00,81.1,11.3,29.83,WSW,253,5.0,9.0,7,0.00,,---,0.00,VWS V14.01,2013-04-05 01:06:00,
2013-04-04 18:12:00,80.9,11.1,29.83,WSW,246,4.0,9.0,7,0.00,,---,0.00,VWS V14.01,2013-04-05 01:12:00,
2013-04-04 18:17:00,80.5,13.8,29.83,West,260,6.0,9.0,8,0.00,,---,0.00,VWS V14.01,2013-04-05 01:17:00,
2013-04-04 18:22:00,80.0,16.2,29.83,WSW,248,4.0,9.0,9,0.00,,---,0.00,VWS V14.01,2013-04-05 01:22:00,
2013-04-04 18:27:00,79.7,15.9,29.83,West,271,2.0,9.0,9,0.00,,---,0.00,VWS V14.01,2013-04-05 01:27:00,
2013-04-04 18:32:00,79.5,15.8,29.83,West,270,4.0,9.0,9,0.00,,---,0.00,VWS V14.01,2013-04-05 01:32:00,
2013-04-04 18:37:00,79.3,15.6,29.83,West,276,2.0,4.0,9,0.00,,---,0.00,VWS V14.01,2013-04-05 01:37:00,
2013-04-04 18:42:00,79.1,15.5,29.83,West,277,2.0,5.0,9,0.00,,---,0.00,VWS V14.01,2013-04-05 01:42:00,
2013-04-04 18:47:00,78.8,17.7,29.83,West,270,4.0,5.0,10,0.00,,---,0.00,VWS V14.01,2013-04-05 01:47:00,
2013-04-04 18:52:00,78.5,17.5,29.83,West,277,4.0,6.0,10,0.00,,---,0.00,VWS V14.01,2013-04-05 01:52:00,
2013-04-04 18:57:00,78.3,17.3,29.84,West,266,1.0,6.0,10,0.00,,---,0.00,VWS V14.01,2013-04-05 01:57:00,
2013-04-04 19:02:00,77.9,19.2,29.84,West,281,1.0,6.0,11,0.00,,---,0.00,VWS V14.01,2013-04-05 02:02:00,
2013-04-04 19:08:00,77.6,19.0,29.84,West,270,0.0,2.0,11,0.00,,---,0.00,VWS V14.01,2013-04-05 02:08:00,
2013-04-04 19:13:00,77.3,18.8,29.84,WSW,256,0.0,2.0,11,0.00,,---,0.00,VWS V14.01,2013-04-05 02:13:00,
2013-04-04 19:18:00,76.8,18.4,29.85,NNE,20,0.0,2.0,11,0.00,,---,0.00,VWS V14.01,2013-04-05 02:18:00,
2013-04-04 19:23:00,76.2,19.9,29.85,East,83,0.0,2.0,12,0.00,,---,0.00,VWS V14.01,2013-04-05 02:23:00,
2013-04-04 19:28:00,75.7,19.5,29.85,East,84,0.0,2.0,12,0.00,,---,0.00,VWS V14.01,2013-04-05 02:28:00,
2013-04-04 19:33:00,75.4,19.3,29.85,NNE,32,0.0,2.0,12,0.00,,---,0.00,VWS V14.01,2013-04-05 02:33:00,
2013-04-04 19:38:00,75.3,21.1,29.85,ENE,65,0.0,1.0,13,0.00,,---,0.00,VWS V14.01,2013-04-05 02:38:00,
2013-04-04 19:43:00,75.1,20.9,29.85,ENE,74,2.0,3.0,13,0.00,,---,0.00,VWS V14.01,2013-04-05 02:43:00,
2013-04-04 19:48:00,75.0,20.9,29.86,NE,44,1.0,4.0,13,0.00,,---,0.00,VWS V14.01,2013-04-05 02:48:00,
2013-04-04 19:54:00,74.8,20.7,29.86,NE,53,0.0,4.0,13,0.00,,---,0.00,VWS V14.01,2013-04-05 02:54:00,
2013-04-04 19:59:00,74.7,20.6,29.86,NE,34,3.0,6.0,13,0.00,,---,0.00,VWS V14.01,2013-04-05 02:59:00,
2013-04-04 20:04:00,74.7,20.6,29.86,NE,37,2.0,2.0,13,0.00,,---,0.00,VWS V14.01,2013-04-05 03:04:00,
2013-04-04 20:09:00,74.5,22.2,29.86,NE,39,2.0,6.0,14,0.00,,---,0.00,VWS V14.01,2013-04-05 03:09:00,
2013-04-04 20:14:00,74.4,22.1,29.86,NNE,30,1.0,6.0,14,0.00,,---,0.00,VWS V14.01,2013-04-05 03:14:00,
2013-04-04 20:19:00,74.1,21.9,29.87,NE,41,2.0,6.0,14,0.00,,---,0.00,VWS V14.01,2013-04-05 03:19:00,
2013-04-04 20:24:00,73.8,21.7,29.86,NNE,33,1.0,6.0,14,0.00,,---,0.00,VWS V14.01,2013-04-05 03:24:00,
2013-04-04 20:29:00,73.4,21.4,29.87,NE,39,2.0,6.0,14,0.00,,---,0.00,VWS V14.01,2013-04-05 03:29:00,
2013-04-04 20:34:00,73.0,22.7,29.87,NNE,12,2.0,2.0,15,0.00,,---,0.00,VWS V14.01,2013-04-05 03:34:00,
2013-04-04 20:40:00,72.9,22.6,29.87,NE,50,2.0,4.0,15,0.00,,---,0.00,VWS V14.01,2013-04-05 03:40:00,
2013-04-04 20:45:00,72.8,22.5,29.87,ENE,60,2.0,5.0,15,0.00,,---,0.00,VWS V14.01,2013-04-05 03:45:00,
2013-04-04 20:50:00,72.5,22.3,29.88,NE,54,2.0,5.0,15,0.00,,---,0.00,VWS V14.01,2013-04-05 03:50:00,
2013-04-04 20:55:00,72.2,22.0,29.87,ENE,61,2.0,5.0,15,0.00,,---,0.00,VWS V14.01,2013-04-05 03:55:00,
2013-04-04 21:00:00,72.0,21.9,29.88,NE,40,3.0,5.0,15,0.00,,---,0.00,VWS V14.01,2013-04-05 04:00:00,
2013-04-04 21:01:00,71.9,23.3,29.88,NE,39,2.0,5.0,16,0.00,,---,0.00,VWS V14.01,2013-04-05 04:01:00,
2013-04-04 21:06:00,71.7,23.1,29.88,NNE,32,2.0,5.0,16,0.00,,---,0.00,VWS V14.01,2013-04-05 04:06:00,
2013-04-04 21:11:00,71.5,23.0,29.88,NE,34,3.0,5.0,16,0.00,,---,0.00,VWS V14.01,2013-04-05 04:11:00,
2013-04-04 21:17:00,71.4,22.9,29.88,NE,42,2.0,5.0,16,0.00,,---,0.00,VWS V14.01,2013-04-05 04:17:00,
2013-04-04 21:22:00,71.4,22.9,29.88,ENE,67,3.0,5.0,16,0.00,,---,0.00,VWS V14.01,2013-04-05 04:22:00,
2013-04-04 21:27:00,71.2,22.8,29.88,NE,44,1.0,5.0,16,0.00,,---,0.00,VWS V14.01,2013-04-05 04:27:00,
2013-04-04 21:32:00,70.9,24.0,29.88,NNE,23,1.0,5.0,17,0.00,,---,0.00,VWS V14.01,2013-04-05 04:32:00,
2013-04-04 21:37:00,70.6,23.7,29.88,NNE,18,1.0,2.0,17,0.00,,---,0.00,VWS V14.01,2013-04-05 04:37:00,
2013-04-04 21:42:00,70.5,23.6,29.88,NNE,23,2.0,5.0,17,0.00,,---,0.00,VWS V14.01,2013-04-05 04:42:00,
2013-04-04 21:47:00,70.6,23.7,29.88,NNE,18,2.0,5.0,17,0.00,,---,0.00,VWS V14.01,2013-04-05 04:47:00,
2013-04-04 21:52:00,70.4,23.5,29.88,NNE,30,4.0,5.0,17,0.00,,---,0.00,VWS V14.01,2013-04-05 04:52:00,
2013-04-04 21:57:00,70.3,23.5,29.88,NNE,22,3.0,5.0,17,0.00,,---,0.00,VWS V14.01,2013-04-05 04:57:00,
2013-04-04 22:02:00,70.1,23.3,29.88,NNE,20,3.0,5.0,17,0.00,,---,0.00,VWS V14.01,2013-04-05 05:02:00,
2013-04-04 22:07:00,69.9,23.1,29.88,NNE,18,3.0,5.0,17,0.00,,---,0.00,VWS V14.01,2013-04-05 05:07:00,
2013-04-04 22:12:00,69.9,23.1,29.88,NNE,16,4.0,6.0,17,0.00,,---,0.00,VWS V14.01,2013-04-05 05:12:00,
2013-04-04 22:18:00,69.8,23.1,29.88,North,9,2.0,6.0,17,0.00,,---,0.00,VWS V14.01,2013-04-05 05:18:00,
2013-04-04 22:23:00,69.8,23.1,29.88,NNE,25,2.0,6.0,17,0.00,,---,0.00,VWS V14.01,2013-04-05 05:23:00,
2013-04-04 22:28:00,69.9,23.1,29.88,NNE,27,2.0,6.0,17,0.00,,---,0.00,VWS V14.01,2013-04-05 05:28:00,
2013-04-04 22:33:00,69.8,23.1,29.88,North,1,1.0,6.0,17,0.00,,---,0.00,VWS V14.01,2013-04-05 05:33:00,
2013-04-04 22:38:00,69.7,23.0,29.88,NNE,13,2.0,3.0,17,0.00,,---,0.00,VWS V14.01,2013-04-05 05:38:00,
2013-04-04 22:43:00,69.6,22.9,29.88,North,1,0.0,3.0,17,0.00,,---,0.00,VWS V14.01,2013-04-05 05:43:00,
2013-04-04 22:48:00,69.2,23.9,29.88,NE,35,2.0,3.0,18,0.00,,---,0.00,VWS V14.01,2013-04-05 05:48:00,
2013-04-04 22:53:00,68.0,24.2,29.88,NE,46,2.0,4.0,19,0.00,,---,0.00,VWS V14.01,2013-04-05 05:53:00,
2013-04-04 22:59:00,67.3,24.9,29.88,NNE,20,2.0,4.0,20,0.00,,---,0.00,VWS V14.01,2013-04-05 05:59:00,
2013-04-04 23:04:00,67.0,24.6,29.88,NE,37,1.0,3.0,20,0.00,,---,0.00,VWS V14.01,2013-04-05 06:04:00,
2013-04-04 23:09:00,67.5,23.8,29.88,NE,36,2.0,5.0,19,0.00,,---,0.00,VWS V14.01,2013-04-05 06:09:00,
2013-04-04 23:14:00,68.1,24.3,29.88,NNE,23,3.0,5.0,19,0.00,,---,0.00,VWS V14.01,2013-04-05 06:14:00,
2013-04-04 23:20:00,68.3,23.2,29.88,NE,37,3.0,5.0,18,0.00,,---,0.00,VWS V14.01,2013-04-05 06:20:00,
2013-04-04 23:25:00,68.3,23.2,29.88,NE,40,4.0,5.0,18,0.00,,---,0.00,VWS V14.01,2013-04-05 06:25:00,
2013-04-04 23:30:00,68.1,24.3,29.88,NNE,12,3.0,5.0,19,0.00,,---,0.00,VWS V14.01,2013-04-05 06:30:00,
2013-04-04 23:35:00,67.6,23.9,29.88,NNE,12,1.0,4.0,19,0.00,,---,0.00,VWS V14.01,2013-04-05 06:35:00,
2013-04-04 23:40:00,67.3,23.7,29.88,NNE,18,2.0,4.0,19,0.00,,---,0.00,VWS V14.01,2013-04-05 06:40:00,
2013-04-04 23:45:00,67.3,23.7,29.88,NNE,25,3.0,5.0,19,0.00,,---,0.00,VWS V14.01,2013-04-05 06:45:00,
2013-04-04 23:50:00,67.3,23.7,29.88,NE,36,2.0,5.0,19,0.00,,---,0.00,VWS V14.01,2013-04-05 06:50:00,
2013-04-04 23:55:00,66.8,23.2,29.88,WSW,245,7.0,7.0,19,0.00,,---,0.00,VWS V14.01,2013-04-05 06:55:00,